{"data":{"norad_id":53492,"epoch":"2026-05-25T04:00:03.998880Z","epoch_age_seconds":56676,"freshness":"FRESH","line1":"1 53492U 22099AD  26145.16671295  .00090821  00000+0  34866-2 0  9998","line2":"2 53492  97.6018 266.1419 0001508  56.8191  93.0054 15.26084360  5796","mean_motion":15.2608436,"eccentricity":0.0001508,"inclination_deg":97.6018,"raan_deg":266.1419,"arg_perigee_deg":56.8191,"mean_anomaly_deg":93.0054,"bstar":0.0034866,"rev_number":579,"period_min":94.359134903918,"perigee_km":486.49589470283,"apogee_km":488.56658024325,"semimajor_km":6865.668237473,"source":"CELESTRAK","updated_at":"2026-05-25T13:38:17.435581Z"}}